GEFSNGP_500_meanwind_222.txt.gz
Wind_Speed
33 31 30 30 29 28 27 25 24 21 19 18 19 18 15 14 12 11 11 10 10 9 8 8 9 9 10 10 11 12 11 11 11 11 11 11 11 12 12 12 11 11 12 12
33 32 31 31 30 29 28 26 24 22 19 18 19 19 18 17 15 14 13 12 11 10 10 10 10 10 12 12 12 13 12 11 12 13 13 12 12 12 12 12 12 13 13 13
34 33 32 32 31 30 29 27 25 23 21 19 19 19 19 18 17 16 15 14 12 12 11 11 11 12 13 13 13 13 13 12 13 14 13 13 13 13 13 13 14 14 14 14
35 34 34 32 31 31 30 27 26 24 22 22 20 20 20 19 18 17 16 14 13 13 12 13 13 14 13 13 13 14 14 13 13 14 14 14 14 14 14 15 15 14 14 14
36 35 34 33 32 31 30 29 27 25 23 23 22 21 20 18 18 18 17 15 14 14 14 14 15 15 15 15 15 15 15 15 15 15 15 15 15 15 15 15 15 15 15 16
37 36 35 33 32 32 31 30 27 26 24 23 23 22 20 19 19 19 19 17 16 16 17 16 16 16 16 17 17 16 16 17 17 16 15 16 16 16 16 16 16 16 17 17
37 36 35 34 32 31 32 30 27 26 25 24 23 22 22 21 21 20 20 20 19 19 19 19 18 19 18 19 19 18 18 17 17 16 16 17 17 17 17 17 17 17 17 17
37 36 35 34 33 33 32 31 29 28 27 26 24 23 23 22 22 22 22 22 21 21 21 21 21 20 21 21 20 20 20 19 17 16 17 18 18 18 19 18 18 18 18 18
39 37 35 34 34 33 33 33 32 30 29 28 27 26 25 23 23 23 23 23 22 23 23 23 23 22 23 22 22 22 21 19 18 17 18 19 19 19 19 19 19 19 19 19
40 38 36 35 34 34 34 35 33 32 31 30 30 29 28 26 25 24 24 24 24 24 25 25 25 24 24 24 24 24 22 20 20 20 20 20 20 21 21 21 21 21 21 21
41 39 37 36 36 35 34 34 34 33 33 32 31 31 30 29 28 27 27 26 26 26 26 26 26 26 26 26 25 24 24 23 23 22 23 22 22 22 22 22 22 22 22 22
41 40 38 37 37 36 35 34 33 33 33 33 33 33 32 32 32 30 29 29 28 28 28 28 27 27 27 27 26 26 25 24 24 24 25 24 24 23 23 23 23 23 23 23
42 41 39 37 37 37 36 35 34 34 33 32 33 33 33 33 32 31 30 30 29 29 29 30 29 28 28 28 28 28 28 27 25 25 25 25 25 24 24 24 25 25 24 24
42 41 39 38 37 37 36 36 36 35 34 34 34 34 34 34 33 32 32 31 31 31 31 31 30 29 29 29 29 29 28 28 28 27 26 26 26 26 25 25 25 25 25 26
40 40 39 39 38 37 37 36 36 35 34 34 35 34 33 33 33 33 33 32 32 32 32 31 30 30 30 30 29 29 29 28 27 27 27 27 28 27 26 26 26 26 26 26
38 38 38 38 37 37 36 36 36 36 35 34 34 34 32 32 32 33 32 32 32 32 32 32 31 32 31 29 28 28 29 29 29 28 29 29 29 27 27 27 28 28 28 28
38 38 37 37 37 37 36 36 36 36 35 34 33 32 32 32 33 33 33 32 32 32 32 32 32 31 29 28 28 29 30 30 30 30 30 29 29 28 28 29 29 29 29 30
38 38 37 37 36 35 35 35 36 36 36 35 34 33 33 33 32 32 31 31 31 31 31 31 31 31 29 29 29 30 30 30 31 31 30 30 29 29 29 30 30 30 31 30
38 37 36 35 35 34 35 35 36 37 36 36 36 36 35 33 32 32 30 29 30 30 30 30 29 28 28 29 30 31 31 31 31 31 30 29 29 29 30 30 31 31 31 31
36 35 34 34 34 34 34 35 36 37 37 36 35 34 33 31 31 31 31 29 28 28 29 28 28 27 27 28 29 30 30 30 30 31 30 30 30 30 30 30 31 31 31 31
33 33 32 32 32 32 32 32 33 34 34 35 33 32 31 30 30 29 28 27 26 26 26 26 27 27 28 28 28 29 29 29 30 30 30 30 30 31 31 31 31 31 31 32
29 29 29 30 30 30 30 30 30 30 30 31 32 32 30 28 28 28 28 27 25 25 26 26 27 27 27 27 28 28 29 30 30 30 29 29 30 30 31 31 31 31 31 32
27 27 27 27 27 28 28 28 29 28 27 27 27 28 27 26 26 26 26 26 25 26 26 26 27 27 27 27 28 29 30 30 30 30 29 29 30 30 30 30 31 31 32 32
25 25 24 25 25 26 26 27 27 27 26 27 26 26 26 26 26 26 26 26 26 27 27 28 28 29 29 29 29 29 30 30 29 29 29 29 30 30 30 31 31 32 32 33
23 23 23 23 23 24 24 24 25 26 26 26 26 25 26 26 26 25 26 27 27 27 28 28 28 29 28 28 28 29 29 28 28 29 29 30 30 30 31 31 32 32 32 33
21 22 22 21 22 23 23 24 24 24 25 24 24 24 24 25 26 26 26 26 26 27 27 27 27 27 27 27 27 27 27 28 28 28 29 29 30 31 31 31 31 31 31 31
20 20 20 20 20 21 22 22 22 23 23 23 23 23 23 24 25 25 25 25 25 25 25 25 25 25 26 26 26 26 26 26 27 27 28 29 29 30 30 30 30 30 31 31

GEFSNGP_500_meanwind_228.txt.gz
Wind_Speed
33 30 30 29 29 28 27 25 23 21 19 18 16 15 14 14 14 13 12 11 10 10 9 8 8 8 9 9 9 10 10 11 11 11 11 11 12 12 12 12 12 13 13 14
36 34 32 31 30 29 28 27 25 23 21 19 19 17 16 16 15 15 15 13 12 11 11 10 10 9 9 10 10 11 11 12 12 11 11 12 13 13 13 13 13 14 14 14
35 34 33 33 31 30 29 27 26 25 23 21 20 19 18 18 17 17 17 16 14 13 13 13 11 10 11 11 12 12 13 13 13 12 12 13 13 14 14 14 14 14 15 15
34 34 34 31 31 30 29 28 26 26 24 23 22 21 20 20 20 19 18 18 16 14 14 13 13 12 12 12 13 13 13 13 13 13 14 14 15 14 14 15 15 15 15 16
35 33 34 33 32 30 29 28 27 26 25 24 23 22 21 20 21 21 20 20 18 16 15 15 14 14 13 14 14 14 14 14 14 15 15 15 15 16 16 16 17 16 16 16
36 34 33 33 32 30 29 29 28 27 26 25 24 23 22 21 21 21 22 21 20 18 17 17 16 16 16 16 16 16 15 15 15 16 16 16 16 17 17 18 18 17 17 17
36 34 32 33 31 30 30 30 28 27 26 25 25 24 23 22 21 22 22 21 20 19 18 18 18 18 19 19 18 18 17 17 17 17 17 18 18 18 19 19 19 18 18 18
37 34 34 34 31 31 30 29 27 27 26 26 25 25 24 23 22 22 22 22 21 21 21 20 20 21 21 21 20 20 19 19 19 19 19 19 19 20 20 21 20 20 19 19
38 37 36 34 32 31 31 30 29 28 27 27 26 25 25 24 23 23 24 24 24 24 23 22 23 23 23 23 23 22 22 22 22 21 22 22 22 22 22 23 22 22 22 21
39 38 36 34 32 31 31 31 31 30 29 28 27 26 26 25 24 24 25 25 25 25 25 25 25 24 24 24 24 24 24 24 24 24 24 24 24 24 25 25 25 25 25 24
39 38 36 35 33 32 31 31 32 32 31 30 28 27 27 26 26 26 26 26 27 27 27 27 26 26 26 26 26 26 26 26 26 25 26 26 26 26 26 26 25 26 25 25
40 39 37 36 34 33 32 31 32 32 32 31 30 29 28 27 28 28 28 28 28 29 28 28 28 27 27 27 28 28 28 28 27 27 27 27 27 27 27 26 26 26 26 26
40 39 38 36 35 34 33 32 32 32 31 31 31 30 30 30 30 30 31 31 30 30 29 30 30 30 29 29 29 29 29 29 28 29 28 28 28 27 27 26 26 26 26 25
39 39 38 38 36 35 34 34 33 32 32 32 31 31 31 31 32 31 32 32 32 31 31 31 31 31 31 31 31 31 30 30 29 29 29 29 28 27 27 27 27 27 27 26
39 39 38 38 37 36 36 35 35 34 34 33 32 32 32 32 32 32 33 33 33 33 33 33 33 32 32 32 32 32 32 32 31 30 30 29 29 28 28 28 28 28 28 28
38 38 38 38 38 38 37 36 36 35 35 34 33 33 33 33 33 34 34 34 34 34 33 33 33 33 33 33 33 32 31 31 30 30 30 30 29 29 29 29 29 29 30 30
38 38 38 38 38 38 38 37 37 36 35 35 35 34 34 34 34 34 34 34 34 34 34 34 34 34 35 35 34 32 31 30 30 30 30 30 30 30 30 30 31 31 31 32
37 37 38 37 37 37 37 38 38 37 36 36 35 35 35 34 34 33 33 34 34 34 35 35 35 34 34 33 33 32 32 32 32 32 32 31 31 31 32 32 32 33 33 33
36 37 37 38 37 37 37 37 37 37 37 37 36 37 36 35 34 34 34 33 34 35 35 35 35 35 34 33 33 34 34 33 32 31 31 31 31 32 33 33 33 33 33 33
35 36 36 36 36 36 36 35 35 35 35 36 36 36 36 35 35 34 34 34 34 34 33 34 33 32 33 33 34 34 33 33 32 32 31 31 31 32 33 33 33 33 33 34
34 35 34 34 34 34 35 35 35 35 35 34 34 35 35 35 35 34 34 34 34 34 34 33 33 32 32 33 33 33 32 32 32 31 31 31 32 32 32 32 33 33 33 33
32 32 32 32 32 33 34 34 34 34 34 35 35 35 34 34 33 33 33 34 33 33 33 34 34 33 32 33 32 31 31 31 31 31 31 31 31 30 30 31 31 31 32 32
29 30 30 30 30 30 31 31 31 31 31 32 33 33 33 32 32 31 32 33 33 33 33 32 32 32 33 32 30 30 30 30 30 30 30 30 30 31 31 31 30 31 31 32
26 27 27 28 27 27 28 29 29 29 29 30 30 31 31 31 31 30 30 31 32 32 32 32 31 30 30 30 29 28 28 29 29 30 30 30 31 31 32 32 31 32 32 32
24 24 24 25 25 25 25 26 27 27 27 27 28 28 28 29 29 29 29 30 31 31 31 31 30 30 29 29 28 27 28 29 29 30 30 31 32 32 32 32 32 32 32 32
22 22 23 22 22 23 23 23 23 24 25 26 26 27 27 27 27 27 28 29 30 30 30 30 29 28 28 28 28 28 28 29 29 29 30 31 31 31 31 30 30 31 31 31
20 21 21 21 21 21 21 21 21 22 22 23 24 24 25 25 25 25 26 27 28 28 28 27 27 28 28 28 28 28 27 27 28 28 29 29 29 29 29 29 30 31 31 31

GEFSNGP_500_meanwind_234.txt.gz
Wind_Speed
29 24 23 24 25 25 24 22 20 19 17 16 16 15 16 16 15 13 12 12 11 10 11 12 13 13 12 12 11 11 11 11 12 12 12 13 14 14 14 15 15 15 15 15
33 27 25 23 23 24 25 23 22 20 19 19 19 20 18 17 16 16 15 14 13 12 12 13 13 13 12 12 12 12 12 13 13 13 14 15 15 15 15 16 16 16 15 15
36 31 28 27 25 24 25 26 24 23 22 21 21 22 22 21 20 19 18 17 15 15 14 14 14 14 14 13 13 13 13 14 14 14 15 15 16 16 16 16 16 16 16 16
35 33 34 32 27 25 24 25 25 24 24 23 23 24 25 24 23 21 20 19 18 17 15 15 15 15 15 14 14 15 15 15 15 15 16 15 16 16 17 17 17 17 18 18
36 33 34 34 30 27 27 27 27 27 26 25 24 26 26 25 24 23 22 20 19 18 17 17 16 16 16 15 16 16 16 16 16 16 17 17 17 17 17 18 18 19 19 19
38 34 33 34 31 30 29 29 28 28 28 27 27 26 27 25 23 23 22 21 20 19 19 19 18 18 17 17 17 17 17 18 18 18 18 18 18 18 19 19 20 20 21 21
38 35 33 30 29 29 31 30 30 30 30 28 28 27 27 26 23 23 22 22 21 21 20 19 19 19 19 19 18 19 19 20 20 20 20 20 20 21 21 21 22 22 22 22
38 35 33 31 29 30 31 32 31 31 31 30 30 30 29 26 24 23 22 22 22 22 21 20 20 20 20 20 20 21 22 22 22 23 23 23 23 24 24 25 25 25 25 25
38 38 36 34 34 34 33 33 33 31 31 30 30 29 29 27 25 24 23 22 22 22 22 22 21 21 21 22 22 23 23 24 24 25 25 25 25 26 27 27 27 26 26 26
39 39 40 39 38 37 36 33 32 32 30 30 30 29 29 28 27 26 25 24 24 24 24 24 23 23 24 24 24 24 25 25 25 26 26 27 28 28 29 29 28 28 27 27
42 41 42 42 40 38 36 35 33 33 32 31 31 31 30 29 28 28 27 26 26 26 26 26 26 26 26 27 27 26 26 27 27 28 28 29 29 29 29 29 29 29 28 29
42 43 43 42 41 38 37 36 35 34 33 33 32 31 30 30 30 29 29 28 28 28 29 28 27 27 27 28 29 29 29 29 29 30 30 31 31 31 31 31 30 30 30 30
42 42 42 41 41 39 37 36 35 34 34 32 32 32 32 32 31 31 30 30 30 30 30 29 29 29 29 29 30 30 31 31 31 32 32 32 32 32 32 31 31 31 31 31
41 41 41 41 40 39 38 37 36 36 35 34 33 33 33 32 32 32 32 31 31 31 31 31 31 30 31 31 32 32 32 32 32 32 32 32 32 32 33 33 33 32 31 32
38 38 39 40 40 39 37 37 37 37 36 35 34 34 34 33 33 33 33 33 32 32 32 32 32 32 33 33 34 34 34 33 33 33 33 33 33 33 33 33 33 32 32 32
38 37 37 38 38 39 39 38 38 38 37 36 36 36 36 35 35 34 34 34 34 34 34 34 34 34 34 34 35 35 36 35 34 34 34 34 34 34 35 35 34 33 32 32
37 38 37 37 38 39 40 40 39 39 38 37 37 37 37 37 36 36 36 36 35 35 35 36 35 35 36 36 36 36 36 35 35 35 35 35 36 37 36 36 35 34 33 33
36 37 37 36 37 38 39 40 40 40 38 38 38 38 37 37 37 37 37 37 37 37 37 36 36 36 36 36 37 36 36 36 36 36 36 37 37 38 37 36 35 35 35 34
35 35 36 36 37 38 39 39 39 39 39 39 38 38 38 38 38 38 38 38 38 38 37 37 36 36 36 36 37 37 37 37 37 37 38 38 38 39 38 37 36 37 36 35
34 35 35 35 36 36 37 38 39 39 39 39 39 38 38 38 38 39 39 38 38 38 38 38 37 37 36 36 36 37 37 37 37 38 37 37 38 38 37 37 37 35 35 34
33 34 35 35 35 36 37 37 37 38 38 38 38 38 38 38 38 38 38 38 38 39 38 38 37 37 37 37 37 37 37 37 37 37 37 38 38 37 37 36 34 34 35 34
32 33 34 34 34 35 36 36 37 37 38 38 38 38 39 39 38 38 38 38 37 38 38 39 38 37 36 37 37 37 37 37 37 37 37 36 36 35 34 34 34 34 34 34
31 32 33 34 35 34 35 36 37 37 37 37 37 38 38 38 38 37 37 37 37 37 38 37 36 36 36 36 36 36 36 36 36 36 35 35 35 34 34 33 33 34 34 34
29 30 30 32 33 34 35 35 36 36 37 37 37 37 36 37 37 37 36 36 36 36 36 35 35 35 35 34 34 35 35 35 35 34 34 34 33 32 32 32 32 32 32 33
26 27 28 28 30 31 32 33 33 34 34 33 33 33 33 34 35 35 35 35 35 35 34 34 33 33 33 34 34 34 33 33 33 33 33 33 32 31 31 31 31 31 32 33
22 24 25 25 26 28 29 30 30 31 30 30 29 29 29 29 30 31 32 32 32 33 33 32 32 32 33 33 33 34 33 33 32 32 32 31 31 31 31 32 31 32 32 32
21 22 23 24 24 25 26 27 27 27 27 28 27 27 27 27 27 27 28 29 30 30 31 31 31 31 32 32 32 32 32 32 32 32 32 32 31 31 31 31 31 31 31 32

GEFSNGP_500_meanwind_240.txt.gz
Wind_Speed
32 30 28 27 27 27 28 27 25 22 19 15 13 13 11 10 10 10 9 8 7 7 8 8 7 8 8 8 8 8 9 10 10 10 10 11 11 11 11 12 12 12 12 12
34 32 30 29 28 27 28 27 27 25 22 17 15 14 13 12 12 12 11 10 10 9 9 9 8 8 9 9 9 9 10 10 11 12 12 12 12 12 13 13 13 13 13 13
37 34 32 32 30 28 28 29 29 28 25 22 19 16 15 15 16 14 12 11 11 11 11 12 11 10 10 10 10 10 10 11 12 12 12 12 12 12 13 13 14 14 14 14
38 36 37 34 30 29 28 28 29 28 27 24 22 20 19 18 17 17 14 13 14 14 14 13 12 11 12 12 12 12 12 13 13 13 13 13 13 13 14 14 14 14 15 16
39 39 38 35 33 31 31 30 30 30 28 25 25 23 21 20 18 17 16 16 16 16 16 15 14 13 13 13 13 14 14 14 14 14 14 15 15 15 15 16 16 16 17 17
41 41 40 37 34 33 32 32 31 31 29 28 26 25 23 21 20 19 17 18 18 17 17 16 15 15 15 15 16 15 16 16 16 15 15 16 17 17 18 18 19 20 20 20
43 42 41 38 37 35 35 34 32 32 30 30 28 26 24 23 21 21 20 20 20 20 18 17 17 17 17 17 17 18 18 18 18 17 17 18 18 18 20 20 20 21 21 21
42 43 42 39 39 38 36 34 33 32 31 30 29 28 27 26 25 24 24 23 22 21 20 20 19 19 19 19 19 20 20 20 20 20 20 20 19 20 20 21 21 22 22 22
42 41 41 41 40 39 37 36 35 33 32 31 29 29 28 27 27 27 27 25 24 23 22 22 21 21 21 21 22 22 22 22 22 22 22 22 21 21 22 22 23 23 24 24
42 41 40 39 39 39 38 37 35 34 32 32 31 30 30 29 29 28 28 27 27 26 25 24 24 23 23 23 23 23 23 23 23 23 23 23 22 22 23 23 24 25 26 26
41 41 40 38 38 37 37 37 35 34 33 33 32 32 32 32 32 32 31 30 28 28 28 27 26 26 26 26 25 25 25 25 24 24 24 24 24 24 24 25 25 25 26 26
42 41 39 38 37 37 36 35 35 34 35 34 33 32 32 32 32 31 30 30 29 29 29 28 27 27 28 28 27 27 26 26 26 26 26 25 25 25 25 26 26 26 27 28
39 40 39 38 38 37 36 36 36 35 34 34 33 33 32 32 32 32 32 32 32 31 31 30 29 29 29 29 29 29 29 28 28 27 27 27 27 27 27 27 28 28 29 30
39 39 39 38 38 38 38 38 37 36 34 34 34 34 34 33 33 33 33 33 33 32 31 30 30 30 30 30 30 30 30 30 30 29 28 29 29 29 29 29 30 31 31 31
39 39 38 38 38 39 38 38 38 37 36 36 35 36 36 35 35 35 34 34 33 33 32 31 31 31 31 31 31 31 31 32 32 31 31 31 31 32 32 32 32 33 33 33
38 37 36 37 37 37 36 37 38 38 38 38 37 36 36 36 35 35 34 33 33 33 33 33 33 33 33 33 33 33 33 34 34 33 33 33 34 34 34 34 34 34 34 34
37 37 37 36 36 35 36 37 37 38 39 38 37 36 36 35 35 35 34 34 34 34 34 34 34 35 35 35 34 34 34 35 35 35 35 36 36 36 35 35 34 34 35 35
36 36 35 36 36 35 34 36 37 38 38 39 37 36 36 36 36 36 36 35 35 35 35 34 35 35 35 36 36 35 35 36 36 36 36 37 37 37 37 36 36 36 36 36
34 33 33 34 35 36 36 36 36 36 38 38 37 38 38 38 38 37 37 37 36 36 35 35 35 36 37 38 37 37 37 36 36 36 36 37 37 37 36 36 37 37 37 37
33 32 31 32 35 35 36 37 37 37 36 36 37 37 37 38 38 38 38 38 37 38 37 36 36 37 38 38 38 37 37 37 36 36 37 37 37 37 37 37 37 37 37 36
31 32 32 32 33 35 35 35 36 37 37 37 37 38 37 37 37 38 38 37 37 37 39 39 38 37 38 38 37 37 37 37 37 36 36 37 37 37 36 36 37 37 37 36
28 30 31 31 32 32 34 35 35 36 37 37 37 37 37 37 37 38 38 38 38 38 39 39 38 38 37 37 37 38 38 38 37 37 36 36 36 36 36 36 36 36 36 35
27 28 29 30 32 33 34 35 36 36 36 36 36 36 36 36 36 36 37 37 37 37 38 38 38 37 37 37 37 37 37 37 37 36 35 35 36 36 35 35 36 35 34 34
26 27 28 29 30 31 32 32 33 34 35 35 35 35 35 35 35 35 35 35 35 36 36 36 36 37 37 37 37 36 36 37 37 36 36 36 35 35 34 34 34 33 33 32
23 24 25 27 28 28 29 29 30 31 31 32 32 33 33 33 34 34 34 33 33 34 34 34 34 35 36 36 37 36 36 36 35 35 35 35 35 34 33 33 33 33 32 32
21 21 22 23 24 25 27 28 28 29 30 30 30 31 32 32 32 32 32 32 33 33 32 31 32 32 33 33 33 34 34 35 35 36 35 35 34 33 32 31 32 31 31 31
19 20 21 21 21 23 24 25 26 26 27 28 28 29 29 30 30 31 31 31 31 31 31 30 30 30 30 31 30 30 31 32 32 32 31 30 30 30 31 31 30 30 30 30